Location: Newark
(12.4436°N, 0.6167°W)
Time: 08:13:59
(UTC+00:00)

Vanguard 1 - Pass Details

Date: 15 December 2019
Orbit: 651 x 3833 km, 34.2° (Epoch: 24 January)

Event Time Altitude Azimuth Distance (km) Brightness Sun altitude
Rises 09:37:12 0° 304° (NW) 7,330 14.1 40.5°
Reaches altitude 10° 09:42:48 10° 306° (NW) 5,898 13.7 41.4°
Maximum altitude 09:59:04 75° 31° (NNE) 1,929 12.2 44.0°
Drops below altitude 10° 10:07:27 10° 116° (ESE) 3,245 13.6 45.3°
Sets 10:09:39 0° 118° (ESE) 3,951 13.8 45.6°
